TimeEST,TemperatureF,Dew PointF,Humidity,Sea Level PressureIn,VisibilityMPH,Wind Direction,Wind SpeedMPH,Gust SpeedMPH,PrecipitationIn,Events,Conditions,WindDirDegrees,DateUTC
12:51 AM,28.9,8.1,41,30.06,10.0,NW,11.5,-,N/A,,Partly Cloudy,310,2013-01-21 05:51:00
1:51 AM,28.0,8.1,43,30.08,10.0,NW,8.1,-,N/A,,Partly Cloudy,320,2013-01-21 06:51:00
2:51 AM,28.0,7.0,41,30.09,10.0,WNW,8.1,-,N/A,,Partly Cloudy,290,2013-01-21 07:51:00
3:51 AM,27.0,6.1,41,30.09,10.0,WSW,5.8,-,N/A,,Partly Cloudy,250,2013-01-21 08:51:00
4:51 AM,26.1,7.0,44,30.09,10.0,WSW,5.8,-,N/A,,Partly Cloudy,240,2013-01-21 09:51:00
5:51 AM,27.0,9.0,47,30.09,10.0,WSW,6.9,-,N/A,,Scattered Clouds,250,2013-01-21 10:51:00
6:51 AM,26.1,9.0,49,30.09,10.0,West,6.9,-,N/A,,Overcast,260,2013-01-21 11:51:00
7:51 AM,26.1,9.0,49,30.09,10.0,West,3.5,-,N/A,,Mostly Cloudy,270,2013-01-21 12:51:00
8:51 AM,27.0,8.1,45,30.10,10.0,West,5.8,-,N/A,,Overcast,260,2013-01-21 13:51:00
9:51 AM,28.0,9.0,45,30.10,10.0,SW,3.5,-,N/A,,Overcast,230,2013-01-21 14:51:00
10:51 AM,28.9,9.0,43,30.07,10.0,Calm,Calm,-,N/A,,Overcast,0,2013-01-21 15:51:00
11:51 AM,30.0,9.0,41,30.03,10.0,South,6.9,-,N/A,,Overcast,180,2013-01-21 16:51:00
12:51 PM,30.9,10.0,42,29.98,10.0,South,8.1,-,N/A,,Overcast,170,2013-01-21 17:51:00
1:51 PM,32.0,10.0,40,29.97,10.0,WSW,9.2,-,N/A,,Overcast,240,2013-01-21 18:51:00
2:51 PM,32.0,10.9,42,29.95,10.0,South,8.1,-,N/A,,Overcast,190,2013-01-21 19:51:00
3:51 PM,30.9,12.0,46,29.91,10.0,SSW,6.9,-,N/A,,Overcast,200,2013-01-21 20:51:00
4:51 PM,32.0,12.0,44,29.89,10.0,Calm,Calm,-,N/A,,Mostly Cloudy,0,2013-01-21 21:51:00
5:51 PM,32.0,12.9,45,29.90,10.0,SSE,3.5,-,N/A,,Overcast,160,2013-01-21 22:51:00
6:51 PM,32.0,12.9,45,29.88,10.0,Calm,Calm,-,N/A,,Overcast,0,2013-01-21 23:51:00
7:51 PM,32.0,14.0,48,29.88,10.0,WNW,8.1,-,N/A,,Mostly Cloudy,300,2013-01-22 00:51:00
8:51 PM,30.0,17.1,59,29.88,10.0,NNW,9.2,-,N/A,,Mostly Cloudy,330,2013-01-22 01:51:00
9:51 PM,30.0,16.0,56,29.87,10.0,West,9.2,-,N/A,,Overcast,260,2013-01-22 02:51:00
10:51 PM,28.0,17.1,63,29.85,10.0,WNW,16.1,-,N/A,,Scattered Clouds,300,2013-01-22 03:51:00
11:51 PM,27.0,12.9,56,29.85,10.0,WNW,12.7,-,N/A,,Mostly Cloudy,290,2013-01-22 04:51:00